Location: Newark
(50.0953°N, 2.1719°E)
Time: 00:51:03
(UTC+00:00)

N. Korean satellite - Pass Details

Date: 24 January 2020
Orbit: 456 x 505 km, 97.2° (Epoch: 20 February)

Event Time Altitude Azimuth Distance (km) Brightness Sun altitude
Rises 04:33:56 0° 31° (NNE) 2,533 10.7 -28.9°
Reaches altitude 10° 04:37:01 10° 62° (ENE) 1,659 10.0 -28.4°
Maximum altitude 04:38:40 13° 89° (E) 1,499 9.9 -28.2°
Drops below altitude 10° 04:40:19 10° 117° (ESE) 1,666 10.0 -27.9°
Sets 04:43:24 0° 147° (SSE) 2,552 10.6 -27.4°
